timestamp,wind_dir_avg,wind_spd_avg,wind_spd_max_dir,wind_spd_gust,battery_voltage,lat,long
2023-10-27 00:04:01+00:00,317.0,2.99,319.0,3.73,12.41,47.59359,-54.27349
2023-10-27 00:14:01+00:00,310.0,1.38,311.0,1.74,12.41,47.59359,-54.27349
2023-10-27 00:24:01+00:00,307.0,1.52,292.0,1.85,12.41,47.59359,-54.27349
2023-10-27 00:34:01+00:00,336.0,2.06,336.0,2.44,12.41,47.59359,-54.27349
2023-10-27 00:44:01+00:00,319.0,1.92,324.0,2.22,12.41,47.59359,-54.27349
2023-10-27 00:54:01+00:00,209.0,0.34,225.0,0.7,12.41,47.59359,-54.27349
2023-10-27 01:04:01+00:00,202.0,1.51,198.0,2.2,12.41,47.59359,-54.27349
2023-10-27 01:14:01+00:00,301.0,2.28,314.0,3.48,12.41,47.59359,-54.27349
2023-10-27 01:24:01+00:00,299.0,2.55,308.0,3.2,12.41,47.59359,-54.27349
2023-10-27 01:34:01+00:00,282.0,1.71,280.0,2.05,12.41,47.59359,-54.27349
2023-10-27 01:44:01+00:00,290.0,2.63,295.0,2.81,12.41,47.59359,-54.27349
2023-10-27 01:54:01+00:00,320.0,3.66,322.0,4.15,12.41,47.59359,-54.27349
2023-10-27 02:04:01+00:00,298.0,2.56,307.0,2.95,12.41,47.59359,-54.27349
2023-10-27 02:14:00+00:00,330.0,3.35,327.0,4.0,12.41,47.59359,-54.27349
2023-10-27 02:24:00+00:00,292.0,2.35,299.0,2.66,12.41,47.59359,-54.27349
2023-10-27 02:34:00+00:00,287.0,2.35,292.0,2.58,12.41,47.59359,-54.27349
2023-10-27 02:44:00+00:00,318.0,2.36,327.0,2.74,12.41,47.59359,-54.27349
2023-10-27 02:54:00+00:00,323.0,3.15,326.0,4.0,12.41,47.59359,-54.27349
2023-10-27 03:04:00+00:00,313.0,3.07,311.0,3.18,12.41,47.59359,-54.27349
2023-10-27 03:14:01+00:00,338.0,2.79,329.0,3.08,12.33,47.59359,-54.27349
2023-10-27 03:24:01+00:00,329.0,1.65,335.0,2.02,12.33,47.59359,-54.27349
2023-10-27 03:34:01+00:00,347.0,1.89,339.0,2.25,12.33,47.59359,-54.27349
2023-10-27 03:44:01+00:00,329.0,1.21,334.0,1.55,12.33,47.59359,-54.27349
2023-10-27 03:54:01+00:00,300.0,0.73,290.0,1.03,12.33,47.59359,-54.27349
2023-10-27 04:04:01+00:00,289.0,2.35,292.0,2.68,12.33,47.59359,-54.27349
2023-10-27 04:14:00+00:00,316.0,2.57,314.0,3.05,12.33,47.59359,-54.27349
2023-10-27 04:24:00+00:00,323.0,2.26,325.0,2.65,12.33,47.59359,-54.27349
2023-10-27 04:34:00+00:00,299.0,2.7,304.0,2.97,12.33,47.59359,-54.27349
2023-10-27 04:44:00+00:00,287.0,2.36,291.0,2.54,12.33,47.59359,-54.27349
2023-10-27 04:54:00+00:00,293.0,2.42,291.0,2.53,12.33,47.59359,-54.27349
2023-10-27 05:04:00+00:00,315.0,0.01,295.0,0.0,12.33,47.59359,-54.27349
2023-10-27 05:14:00+00:00,315.0,0.01,285.0,0.0,12.33,47.59359,-54.27349
2023-10-27 05:24:00+00:00,316.0,3.31,316.0,3.35,12.33,47.59359,-54.27349
2023-10-27 05:34:00+00:00,307.0,2.95,319.0,3.62,12.33,47.59359,-54.27349
2023-10-27 05:44:00+00:00,320.0,3.45,324.0,3.77,12.33,47.59359,-54.27349
2023-10-27 05:54:00+00:00,318.0,4.01,320.0,4.47,12.33,47.59359,-54.27349
2023-10-27 06:04:00+00:00,313.0,4.38,317.0,4.43,12.33,47.59359,-54.27349
2023-10-27 06:14:00+00:00,311.0,4.4,310.0,4.65,12.33,47.59359,-54.27349
2023-10-27 06:24:00+00:00,317.0,3.43,319.0,3.69,12.33,47.59359,-54.27349
2023-10-27 06:34:00+00:00,334.0,3.31,337.0,3.78,12.33,47.59359,-54.27349
2023-10-27 06:44:00+00:00,343.0,3.95,344.0,4.66,12.33,47.59359,-54.27349
2023-10-27 06:54:00+00:00,0.0,3.54,358.0,4.21,12.33,47.59359,-54.27349
2023-10-27 07:04:00+00:00,350.0,4.88,351.0,5.51,12.33,47.59359,-54.27349
2023-10-27 07:14:00+00:00,350.0,4.56,356.0,5.31,12.25,47.59359,-54.27349
2023-10-27 07:24:00+00:00,347.0,4.67,347.0,5.04,12.25,47.59359,-54.27349
2023-10-27 07:34:00+00:00,342.0,4.81,337.0,5.46,12.25,47.59359,-54.27349
2023-10-27 07:44:00+00:00,334.0,5.07,332.0,6.03,12.25,47.59359,-54.27349
2023-10-27 07:54:00+00:00,336.0,5.09,330.0,5.67,12.25,47.59359,-54.27349
2023-10-27 08:04:00+00:00,340.0,4.83,332.0,5.35,12.25,47.59359,-54.27349
2023-10-27 08:14:00+00:00,350.0,4.93,352.0,5.4,12.25,47.59359,-54.27349
2023-10-27 08:24:00+00:00,359.0,4.31,3.0,4.72,12.25,47.59359,-54.27349
2023-10-27 08:34:00+00:00,353.0,3.01,348.0,3.73,12.25,47.59359,-54.27349
2023-10-27 08:44:00+00:00,350.0,3.09,348.0,4.09,12.25,47.59359,-54.27349
2023-10-27 08:54:00+00:00,5.0,2.37,7.0,2.75,12.25,47.59359,-54.27349
2023-10-27 09:04:00+00:00,350.0,2.74,352.0,3.27,12.25,47.59359,-54.27349
2023-10-27 09:14:00+00:00,335.0,2.44,331.0,2.74,12.25,47.59359,-54.27349
2023-10-27 09:24:00+00:00,334.0,2.66,338.0,3.04,12.25,47.59359,-54.27349
2023-10-27 09:34:00+00:00,353.0,3.22,354.0,3.59,12.25,47.59359,-54.27349
2023-10-27 09:44:00+00:00,344.0,3.52,344.0,3.91,12.25,47.59359,-54.27349
2023-10-27 09:54:00+00:00,352.0,3.93,350.0,4.59,12.25,47.59359,-54.27349
2023-10-27 10:04:00+00:00,349.0,4.56,350.0,5.03,12.25,47.59359,-54.27349
2023-10-27 10:14:00+00:00,359.0,4.73,1.0,4.82,12.25,47.59359,-54.27349
2023-10-27 10:24:00+00:00,348.0,4.44,350.0,5.12,12.25,47.59359,-54.27349
2023-10-27 10:34:00+00:00,315.0,0.01,10.0,0.0,12.25,47.59359,-54.27349
2023-10-27 10:44:00+00:00,13.0,3.98,14.0,4.6,12.25,47.59359,-54.27349
2023-10-27 10:54:00+00:00,315.0,0.01,20.0,0.0,12.25,47.59359,-54.27349
2023-10-27 11:04:00+00:00,315.0,0.01,350.0,0.0,12.25,47.59359,-54.27349
2023-10-27 11:14:00+00:00,315.0,0.01,345.0,0.0,13.13,47.59359,-54.27349
2023-10-27 11:24:00+00:00,353.0,3.91,353.0,4.19,13.13,47.59359,-54.27349
2023-10-27 11:34:00+00:00,348.0,3.55,350.0,4.04,13.13,47.59359,-54.27349
2023-10-27 11:44:00+00:00,9.0,3.47,10.0,4.47,13.13,47.59359,-54.27349
2023-10-27 11:54:00+00:00,17.0,2.65,17.0,2.67,13.13,47.59359,-54.27349
2023-10-27 12:04:00+00:00,6.0,3.79,7.0,3.99,13.13,47.59359,-54.27349
2023-10-27 12:14:00+00:00,8.0,2.95,13.0,3.36,14.4,47.59359,-54.27349
2023-10-27 12:24:00+00:00,13.0,3.21,14.0,3.83,14.4,47.59359,-54.27349
2023-10-27 12:34:00+00:00,28.0,2.73,29.0,3.21,14.4,47.59359,-54.27349
2023-10-27 12:44:00+00:00,30.0,2.45,27.0,2.79,14.4,47.59359,-54.27349
2023-10-27 12:54:00+00:00,26.0,1.83,28.0,2.51,14.4,47.59359,-54.27349
2023-10-27 13:04:00+00:00,35.0,2.65,32.0,3.14,14.4,47.59359,-54.27349
2023-10-27 13:14:00+00:00,56.0,2.97,57.0,3.76,13.92,47.59359,-54.27349
2023-10-27 13:24:00+00:00,48.0,3.09,50.0,3.7,13.92,47.59359,-54.27349
2023-10-27 13:34:00+00:00,71.0,3.24,67.0,3.78,13.92,47.59359,-54.27349
2023-10-27 13:44:00+00:00,65.0,3.1,69.0,3.58,13.92,47.59359,-54.27349
2023-10-27 13:54:00+00:00,52.0,2.58,50.0,2.86,13.92,47.59359,-54.27349
2023-10-27 14:04:00+00:00,61.0,2.03,60.0,2.48,13.92,47.59359,-54.27349
2023-10-27 14:14:00+00:00,46.0,3.06,45.0,3.98,13.6,47.59359,-54.27349
2023-10-27 14:24:00+00:00,40.0,3.6,40.0,4.24,13.6,47.59359,-54.27349
2023-10-27 14:34:00+00:00,35.0,5.24,40.0,5.84,13.6,47.59359,-54.27349
2023-10-27 14:44:00+00:00,35.0,4.59,37.0,5.01,13.6,47.59359,-54.27349
2023-10-27 14:54:00+00:00,47.0,3.53,44.0,3.98,13.6,47.59359,-54.27349
2023-10-27 15:04:00+00:00,48.0,3.63,48.0,4.27,13.6,47.59359,-54.27349
2023-10-27 15:14:00+00:00,59.0,3.38,56.0,3.88,14.32,47.59359,-54.27349
2023-10-27 15:24:00+00:00,61.0,3.23,67.0,3.6,14.32,47.59359,-54.27349
2023-10-27 15:34:00+00:00,52.0,3.0,50.0,3.32,14.32,47.59359,-54.27349
2023-10-27 15:44:00+00:00,52.0,2.15,54.0,2.62,14.32,47.59359,-54.27349
2023-10-27 15:54:00+00:00,50.0,1.33,39.0,1.7,14.32,47.59359,-54.27349
2023-10-27 16:04:00+00:00,86.0,0.37,89.0,0.7,14.32,47.59359,-54.27349
2023-10-27 16:14:00+00:00,41.0,1.04,31.0,1.42,13.68,47.59359,-54.27349
2023-10-27 16:24:00+00:00,48.0,1.23,60.0,1.56,13.68,47.59359,-54.27349
2023-10-27 16:34:00+00:00,50.0,1.07,67.0,1.41,13.68,47.59359,-54.27349
2023-10-27 16:44:00+00:00,39.0,1.07,32.0,1.33,13.68,47.59359,-54.27349
2023-10-27 16:54:00+00:00,31.0,1.79,30.0,2.06,13.68,47.59359,-54.27349
2023-10-27 17:04:00+00:00,14.0,1.69,11.0,1.95,13.68,47.59359,-54.27349
2023-10-27 17:14:00+00:00,40.0,1.6,43.0,1.79,13.76,47.59359,-54.27349
2023-10-27 17:24:00+00:00,25.0,1.18,29.0,1.43,13.76,47.59359,-54.27349
2023-10-27 17:34:00+00:00,50.0,1.57,50.0,1.84,13.76,47.59359,-54.27349
2023-10-27 17:44:00+00:00,34.0,1.62,33.0,2.04,13.76,47.59359,-54.27349
2023-10-27 17:54:00+00:00,48.0,2.24,46.0,2.68,13.76,47.59359,-54.27349
2023-10-27 18:04:00+00:00,31.0,2.77,30.0,3.17,13.76,47.59359,-54.27349
2023-10-27 18:14:00+00:00,40.0,2.17,38.0,2.71,13.84,47.59359,-54.27349
2023-10-27 18:24:00+00:00,57.0,2.1,60.0,2.52,13.84,47.59359,-54.27349
2023-10-27 18:34:00+00:00,51.0,2.19,52.0,2.48,13.84,47.59359,-54.27349
2023-10-27 18:44:00+00:00,66.0,2.39,62.0,2.75,13.84,47.59359,-54.27349
2023-10-27 18:54:00+00:00,65.0,2.72,67.0,3.23,13.84,47.59359,-54.27349
2023-10-27 19:04:00+00:00,65.0,2.2,65.0,2.56,13.84,47.59359,-54.27349
2023-10-27 19:14:01+00:00,61.0,2.54,63.0,2.83,13.76,47.59359,-54.27349
2023-10-27 19:24:01+00:00,66.0,1.55,74.0,1.98,13.76,47.59359,-54.27349
2023-10-27 19:34:01+00:00,79.0,1.91,90.0,2.6,13.76,47.59359,-54.27349
2023-10-27 19:44:01+00:00,73.0,2.23,70.0,2.55,13.76,47.59359,-54.27349
2023-10-27 19:54:01+00:00,73.0,2.48,70.0,2.9,13.76,47.59359,-54.27349
2023-10-27 20:04:01+00:00,95.0,1.98,68.0,2.87,13.76,47.59359,-54.27349
2023-10-27 20:14:01+00:00,124.0,3.67,123.0,4.13,13.13,47.59359,-54.27349
2023-10-27 20:24:01+00:00,119.0,3.92,127.0,4.84,13.13,47.59359,-54.27349
2023-10-27 20:34:01+00:00,101.0,2.69,122.0,4.64,13.13,47.59359,-54.27349
2023-10-27 20:44:01+00:00,118.0,3.05,126.0,4.91,13.13,47.59359,-54.27349
2023-10-27 20:54:01+00:00,109.0,2.7,126.0,4.45,13.13,47.59359,-54.27349
2023-10-27 21:04:01+00:00,96.0,3.02,91.0,4.84,13.13,47.59359,-54.27349
2023-10-27 21:14:01+00:00,116.0,3.25,129.0,4.77,12.57,47.59359,-54.27349
2023-10-27 21:24:01+00:00,124.0,6.02,127.0,6.81,12.57,47.59359,-54.27349
2023-10-27 21:34:01+00:00,116.0,3.43,132.0,6.28,12.57,47.59359,-54.27349
2023-10-27 21:44:01+00:00,117.0,3.43,130.0,5.14,12.57,47.59359,-54.27349
2023-10-27 21:54:01+00:00,112.0,3.32,122.0,5.28,12.57,47.59359,-54.27349
2023-10-27 22:04:01+00:00,116.0,3.62,126.0,5.31,12.57,47.59359,-54.27349
2023-10-27 22:14:01+00:00,99.0,2.44,91.0,4.39,12.49,47.59359,-54.27349
2023-10-27 22:24:01+00:00,93.0,2.45,109.0,4.71,12.49,47.59359,-54.27349
2023-10-27 22:34:01+00:00,126.0,5.22,135.0,6.32,12.49,47.59359,-54.27349
2023-10-27 22:44:01+00:00,131.0,5.74,127.0,6.86,12.49,47.59359,-54.27349
2023-10-27 22:54:01+00:00,120.0,3.71,123.0,5.02,12.49,47.59359,-54.27349
2023-10-27 23:04:01+00:00,124.0,5.71,120.0,6.71,12.49,47.59359,-54.27349
2023-10-27 23:14:01+00:00,125.0,4.91,132.0,5.89,12.41,47.59359,-54.27349
2023-10-27 23:24:01+00:00,129.0,6.14,129.0,7.04,12.41,47.59359,-54.27349
2023-10-27 23:34:01+00:00,134.0,5.69,140.0,6.82,12.41,47.59359,-54.27349
2023-10-27 23:44:01+00:00,130.0,5.15,130.0,6.32,12.41,47.59359,-54.27349
2023-10-27 23:54:01+00:00,122.0,4.89,127.0,6.43,12.41,47.59359,-54.27349
